TimeEDT,TemperatureF,Dew PointF,Humidity,Sea Level PressureIn,VisibilityMPH,Wind Direction,Wind SpeedMPH,Gust SpeedMPH,PrecipitationIn,Events,Conditions,WindDirDegrees,DateUTC
12:15 AM,48.2,46.4,93,30.25,10.0,Calm,Calm,-,N/A,,Clear,0,2013-10-09 04:15:00
12:35 AM,46.4,46.4,100,30.25,10.0,Calm,Calm,-,N/A,,Clear,0,2013-10-09 04:35:00
12:55 AM,46.4,44.6,93,30.24,10.0,Calm,Calm,-,N/A,,Clear,0,2013-10-09 04:55:00
1:15 AM,46.4,44.6,93,30.24,10.0,Calm,Calm,-,N/A,,Clear,0,2013-10-09 05:15:00
1:35 AM,46.4,44.6,93,30.24,10.0,Calm,Calm,-,N/A,,Clear,0,2013-10-09 05:35:00
1:55 AM,46.4,44.6,93,30.24,10.0,Calm,Calm,-,N/A,,Clear,0,2013-10-09 05:55:00
2:15 AM,44.6,44.6,100,30.25,10.0,Calm,Calm,-,N/A,,Clear,0,2013-10-09 06:15:00
2:35 AM,44.6,44.6,100,30.25,10.0,Calm,Calm,-,N/A,,Clear,0,2013-10-09 06:35:00
2:55 AM,44.6,42.8,93,30.24,10.0,Calm,Calm,-,N/A,,Clear,0,2013-10-09 06:55:00
3:15 AM,44.6,42.8,93,30.24,10.0,Calm,Calm,-,N/A,,Clear,0,2013-10-09 07:15:00
3:35 AM,44.6,42.8,93,30.24,10.0,Calm,Calm,-,N/A,,Clear,0,2013-10-09 07:35:00
3:55 AM,44.6,42.8,93,30.24,10.0,Calm,Calm,-,N/A,,Clear,0,2013-10-09 07:55:00
4:15 AM,42.8,42.8,100,30.24,10.0,Calm,Calm,-,N/A,,Clear,0,2013-10-09 08:15:00
4:35 AM,42.8,42.8,100,30.24,10.0,Calm,Calm,-,N/A,,Clear,0,2013-10-09 08:35:00
4:55 AM,42.8,42.8,100,30.24,10.0,Calm,Calm,-,N/A,,Clear,0,2013-10-09 08:55:00
5:15 AM,42.8,41.0,93,30.24,10.0,Calm,Calm,-,N/A,,Clear,0,2013-10-09 09:15:00
5:35 AM,42.8,42.8,100,30.24,7.0,Calm,Calm,-,N/A,,Clear,0,2013-10-09 09:35:00
5:55 AM,42.8,41.0,93,30.25,10.0,Calm,Calm,-,N/A,,Clear,0,2013-10-09 09:55:00
6:15 AM,42.8,41.0,93,30.25,10.0,Calm,Calm,-,N/A,,Clear,0,2013-10-09 10:15:00
6:35 AM,41.0,41.0,100,30.25,10.0,Calm,Calm,-,N/A,,Clear,0,2013-10-09 10:35:00
6:55 AM,42.8,41.0,93,30.26,10.0,Calm,Calm,-,N/A,,Clear,0,2013-10-09 10:55:00
7:15 AM,42.8,41.0,93,30.26,10.0,Calm,Calm,-,N/A,,Clear,0,2013-10-09 11:15:00
7:35 AM,42.8,41.0,93,30.27,10.0,Calm,Calm,-,N/A,,Clear,0,2013-10-09 11:35:00
7:55 AM,42.8,41.0,93,30.26,7.0,Calm,Calm,-,N/A,,Clear,0,2013-10-09 11:55:00
8:15 AM,42.8,41.0,93,30.27,10.0,Calm,Calm,-,N/A,,Clear,0,2013-10-09 12:15:00
8:35 AM,44.6,44.6,100,30.27,10.0,Calm,Calm,-,N/A,,Clear,0,2013-10-09 12:35:00
8:55 AM,48.2,44.6,87,30.28,10.0,Calm,Calm,-,N/A,,Clear,0,2013-10-09 12:55:00
9:15 AM,51.8,46.4,82,30.29,10.0,Calm,Calm,-,N/A,,Clear,0,2013-10-09 13:15:00
9:35 AM,53.6,46.4,77,30.29,10.0,ENE,3.5,-,N/A,,Clear,70,2013-10-09 13:35:00
9:55 AM,57.2,48.2,72,30.29,10.0,ENE,4.6,-,N/A,,Clear,70,2013-10-09 13:55:00
10:15 AM,59.0,50.0,72,30.29,10.0,ENE,4.6,-,N/A,,Clear,70,2013-10-09 14:15:00
10:35 AM,60.8,46.4,59,30.30,10.0,East,5.8,-,N/A,,Clear,90,2013-10-09 14:35:00
10:55 AM,62.6,46.4,55,30.29,10.0,East,4.6,-,N/A,,Clear,80,2013-10-09 14:55:00
11:15 AM,64.4,46.4,52,30.29,10.0,ENE,4.6,-,N/A,,Clear,70,2013-10-09 15:15:00
11:35 AM,66.2,44.6,46,30.29,10.0,ESE,6.9,-,N/A,,Clear,110,2013-10-09 15:35:00
11:55 AM,68.0,42.8,40,30.29,10.0,East,3.5,-,N/A,,Clear,90,2013-10-09 15:55:00
12:15 PM,68.0,41.0,37,30.28,10.0,East,3.5,-,N/A,,Clear,90,2013-10-09 16:15:00
12:35 PM,69.8,41.0,35,30.27,10.0,East,6.9,-,N/A,,Clear,90,2013-10-09 16:35:00
12:55 PM,69.8,41.0,35,30.27,10.0,ESE,3.5,-,N/A,,Clear,120,2013-10-09 16:55:00
1:15 PM,71.6,41.0,33,30.26,10.0,Calm,Calm,-,N/A,,Clear,0,2013-10-09 17:15:00
1:35 PM,73.4,42.8,33,30.25,10.0,Calm,Calm,-,N/A,,Clear,0,2013-10-09 17:35:00
1:55 PM,71.6,37.4,29,30.24,10.0,Calm,Calm,-,N/A,,Clear,0,2013-10-09 17:55:00
2:15 PM,73.4,37.4,27,30.23,10.0,ENE,6.9,-,N/A,,Clear,70,2013-10-09 18:15:00
2:35 PM,73.4,35.6,25,30.22,10.0,SSE,4.6,-,N/A,,Clear,150,2013-10-09 18:35:00
2:55 PM,73.4,35.6,25,30.22,5.0,East,6.9,-,N/A,,Haze,90,2013-10-09 18:55:00
3:15 PM,73.4,35.6,25,30.21,10.0,East,8.1,-,N/A,,Clear,80,2013-10-09 19:15:00
3:35 PM,73.4,35.6,25,30.21,10.0,SE,3.5,-,N/A,,Clear,130,2013-10-09 19:35:00
3:55 PM,73.4,35.6,25,30.20,10.0,East,6.9,-,N/A,,Clear,80,2013-10-09 19:55:00
4:15 PM,73.4,35.6,25,30.20,10.0,NE,4.6,-,N/A,,Clear,50,2013-10-09 20:15:00
4:55 PM,73.4,35.6,25,30.19,10.0,ENE,5.8,-,N/A,,Clear,70,2013-10-09 20:55:00
5:15 PM,73.4,35.6,25,30.19,10.0,East,5.8,-,N/A,,Clear,100,2013-10-09 21:15:00
5:35 PM,71.6,35.6,27,30.19,10.0,East,3.5,-,N/A,,Clear,90,2013-10-09 21:35:00
5:55 PM,71.6,39.2,31,30.19,10.0,East,3.5,-,N/A,,Clear,90,2013-10-09 21:55:00
6:15 PM,66.2,44.6,46,30.19,10.0,Calm,Calm,-,N/A,,Clear,0,2013-10-09 22:15:00
6:35 PM,62.6,44.6,52,30.19,10.0,Calm,Calm,-,N/A,,Clear,0,2013-10-09 22:35:00
6:55 PM,60.8,44.6,55,30.19,10.0,Calm,Calm,-,N/A,,Clear,0,2013-10-09 22:55:00
7:15 PM,57.2,44.6,63,30.19,10.0,Calm,Calm,-,N/A,,Clear,0,2013-10-09 23:15:00
7:55 PM,55.4,44.6,67,30.20,10.0,Calm,Calm,-,N/A,,Clear,0,2013-10-09 23:55:00
8:15 PM,53.6,46.4,77,30.20,10.0,Calm,Calm,-,N/A,,Clear,0,2013-10-10 00:15:00
8:35 PM,51.8,46.4,82,30.20,10.0,Calm,Calm,-,N/A,,Clear,0,2013-10-10 00:35:00
8:55 PM,51.8,46.4,82,30.20,10.0,Calm,Calm,-,N/A,,Clear,0,2013-10-10 00:55:00
9:15 PM,50.0,44.6,82,30.21,10.0,Calm,Calm,-,N/A,,Clear,0,2013-10-10 01:15:00
9:35 PM,50.0,46.4,87,30.21,10.0,Calm,Calm,-,N/A,,Clear,0,2013-10-10 01:35:00
9:55 PM,50.0,46.4,87,30.21,10.0,Calm,Calm,-,N/A,,Clear,0,2013-10-10 01:55:00
10:15 PM,48.2,44.6,87,30.21,10.0,Calm,Calm,-,N/A,,Clear,0,2013-10-10 02:15:00
10:35 PM,48.2,44.6,87,30.21,10.0,Calm,Calm,-,N/A,,Clear,0,2013-10-10 02:35:00
10:55 PM,46.4,44.6,93,30.20,10.0,Calm,Calm,-,N/A,,Clear,0,2013-10-10 02:55:00
11:15 PM,46.4,44.6,93,30.21,10.0,Calm,Calm,-,N/A,,Clear,0,2013-10-10 03:15:00
11:35 PM,46.4,44.6,93,30.20,10.0,Calm,Calm,-,N/A,,Clear,0,2013-10-10 03:35:00
11:55 PM,46.4,44.6,93,30.19,10.0,Calm,Calm,-,N/A,,Clear,0,2013-10-10 03:55:00